Home   Weather   Pokhara   Past weeks

Flag for Nepal Past Weather in Pokhara, Nepal — Yesterday and Last 2 Weeks

Now
64 °F

Passing clouds.


Feels Like: 64 °F
Forecast: 52 / 74 °F
Wind: 5 mph from Southwest

Location: Kathmandu Airport

Current Time: Feb 21, 2017 at 8:11:06 pm

Latest Report: Feb 21, 2017 at 7:35 pm


Visibility: 4 mi

Pressure: 29.95 "Hg (27.12 "Hg at 847m altitude)

Humidity: 49%

Dew Point: 45 °F

Location of PokharaLocation

Past Weather in Pokhara — Graph

°F

Pokhara Temperature Yesterday

Maximum temperature yesterday: 75 °F (at 1:05 pm)
Minimum temperature yesterday: 48 °F (at 6:35 am)
Average temperature yesterday: 62 °F

High & Low Weather Summary for the Past Weeks

 TemperatureHumidityPressure
High75 °F (Feb 8, 1:05 pm)100% (Feb 9, 7:05 am)30.33 "Hg (Feb 9, 7:05 am)
Low41 °F (Feb 11, 6:05 am)13% (Feb 9, 2:05 pm)29.83 "Hg (Feb 20, 2:05 pm)
Average58 °F64%30.11 "Hg
* Reported Feb 6 7:05 pm — Feb 21 7:05 pm, Pokhara, Weather by CustomWeather, © 2017

Note: Actual official high and low records may vary slightly from our data, if they occured in-between our weather recording intervals... More about our weather records

Advertising

Pokhara Weather History for the Previous 24 Hours

Scroll right to see more
 ConditionsComfort  
Time TempWeatherWind HumidityBarometerVisibility
7:05 pm
Tue, Feb 21
66 °FPassing clouds.5 mph40%29.92 "Hg4 mi
6:35 pm66 °FScattered clouds.5 mph40%29.92 "Hg5 mi
6:05 pm68 °FScattered clouds.6 mph35%29.89 "Hg5 mi
5:35 pm70 °FPassing clouds.6 mph31%29.89 "HgN/A
5:05 pm72 °FScattered clouds.7 mph29%29.89 "HgN/A
4:35 pm73 °FScattered clouds.7 mph27%29.86 "HgN/A
4:05 pm73 °FScattered clouds.8 mph25%29.86 "HgN/A
3:35 pm73 °FScattered clouds.10 mph23%29.86 "HgN/A
2:35 pm75 °FPassing clouds.9 mph22%29.89 "HgN/A
2:05 pm73 °FPassing clouds.8 mph23%29.89 "HgN/A
1:35 pm73 °FPassing clouds.10 mph23%29.92 "HgN/A
1:05 pm73 °FPassing clouds.9 mph20%29.95 "Hg5 mi
12:35 pm73 °FPassing clouds.10 mph23%29.95 "Hg4 mi
12:05 pm73 °FPassing clouds.5 mph29%29.98 "Hg4 mi
11:35 am72 °FPassing clouds.3 mph33%29.98 "Hg4 mi
11:05 am70 °FHaze.3 mph38%29.98 "Hg3 mi
10:35 am66 °FHaze.5 mph52%30.01 "Hg2 mi
10:05 am64 °FHaze.2 mph60%29.98 "Hg1 mi
9:35 am61 °FHaze.2 mph63%29.98 "Hg1 mi
9:05 am57 °FFog.No wind72%29.98 "Hg1 mi
8:35 am52 °FFog.2 mph88%29.95 "Hg1 mi
8:05 am52 °FFog.2 mph88%29.95 "Hg1 mi
7:35 am50 °FFog.3 mph94%29.92 "Hg1 mi
7:05 am48 °FFog.3 mph94%29.92 "Hg1 mi
6:35 am50 °FFog.2 mph88%29.89 "Hg1 mi
6:05 am48 °FFog.2 mph94%29.89 "Hg1 mi
5:35 am48 °FFog.5 mph94%29.89 "Hg2 mi
4:35 am50 °FFog.5 mph94%29.86 "Hg2 mi
3:35 am52 °FFog.3 mph88%29.86 "Hg2 mi
2:35 am52 °FFog.3 mph88%29.89 "Hg2 mi
1:35 am54 °FFog.2 mph82%29.89 "Hg2 mi
12:35 am55 °FFog.No wind88%29.92 "Hg2 mi
12:05 am55 °FFog.2 mph88%29.92 "Hg2 mi
11:35 pm
Mon, Feb 20
57 °FPassing clouds.3 mph82%29.92 "Hg2 mi
11:05 pm59 °FFog.2 mph77%29.92 "Hg2 mi
10:35 pm59 °FFog.3 mph77%29.92 "Hg2 mi
10:05 pm59 °FLight rain. Partly cloudy.3 mph82%29.92 "Hg2 mi
9:35 pm61 °FFog.3 mph72%29.92 "Hg2 mi
9:05 pm63 °FLight rain. Partly cloudy.3 mph64%29.92 "Hg2 mi
8:35 pm61 °FPassing clouds.5 mph68%29.89 "Hg3 mi
8:05 pm63 °FHaze.7 mph64%29.89 "Hg2 mi
Weather by CustomWeather, © 2017

See weather overviewHow to use our weather pages